Regional Weather Roundup
Issued by NWS Newport/Morehead, NC

Current Version | Previous Version | Text Only | Print | Product List | Glossary On
Versions: 1 2 3 4 5 6 7 8 9 10 11 12 13 14 15 16 17 18 19 20 21 22 23 24 25 26 27 28 29 30 31 32 33 34 35 36 37 38 39 40 41 42 43 44 45 46 47 48 49 50
000
ASUS42 KMHX 250413
RWRMHX
WEATHER ROUNDUP FOR EASTERN NORTH CAROLINA
NATIONAL WEATHER SERVICE NEWPORT/MOREHEAD CITY NC
1200 AM EDT WED MAY 25 2016

NOTE: "FAIR" INDICATES FEW OR NO CLOUDS BELOW 12,000 FEET
WITH NO SIGNIFICANT WEATHER AND/OR OBSTRUCTIONS TO VISIBILITY

NCZ015>017-031-032-045>047-102-103-250500-
NORTH COAST

CITY           SKY/WX    TMP DP  RH WIND       PRES   REMARKS
EDENTON        CLEAR    N/A N/A N/A SW10      30.14S
ELIZABETH CITY CLEAR     67  60  78 S10       30.12R
KITTY HAWK     CLEAR     68  60  76 SW6       30.12S
MANTEO         CLEAR     67  63  85 SW10      30.13S

$$

NCZ045>047-081-094-103-104-250500-
CENTRAL COAST

CITY           SKY/WX    TMP DP  RH WIND       PRES   REMARKS
FRISCO         CLEAR     68  63  84 SW8       30.16S

$$

NCZ095-097-098-100-101-250500-
SOUTHERN COAST

CITY           SKY/WX    TMP DP  RH WIND       PRES   REMARKS
BEAUFORT       CLEAR     70  62  76 SW9       30.18R
CEDAR ISLAND   NOT AVBL
JACKSONVILLE   CLEAR     64  57  78 W7        30.18R
PINEY ISLAND   CLEAR    N/A N/A N/A SW8       30.17R
WILMINGTON     CLEAR     65  58  78 SW6       30.19R


$$

NCZ011>013-027>030-043-044-078>080-089-090>093-098-250500-
COASTAL PLAIN

CITY           SKY/WX    TMP DP  RH WIND       PRES   REMARKS
AHOSKIE        CLEAR     59  56  91 CALM      30.13R
CLINTON        CLEAR     66  60  79 CALM      30.18R
ELIZABETHTOWN  CLEAR     66  56  71 S3        30.18S
GOLDSBORO      CLEAR     67  60  78 S3        30.15R
GREENVILLE     CLEAR     68  59  73 SW8       30.16S
HAVELOCK       CLEAR     63  59  87 SW6       30.18R
KENANSVILLE    CLEAR     62  58  86 CALM      30.18S
KINSTON        CLEAR     64  59  82 SW7       30.17S
NEW BERN       CLEAR     64  58  80 SW6       30.18R
RICHLANDS      CLEAR     62  58  86 SW3       30.18R
ROCKY MOUNT    CLEAR     64  56  75 SW3       30.14S
WASHINGTON     CLEAR     66  58  77 S6        30.15S
WHITEVILLE     CLEAR     65  56  74 CALM      30.19R

$$

AMZ130-135-150-152-154-156-158-170-250-252-270-ANZ085-086-088-633-658-670-250500-
MARINE OBSERVATIONS

STATION/POSITION TIME  TEMP    WIND        PRES    WAVE   SWELL
                       AIR SEA DIR/SP/G            HT/PER HT/PER
                 (UTC) (F)     (DEG/KT/KT) (MB)    (FT/S) (FT/S)
CHESAPEAKE LIGHT 0400   74     230/ 12/ 12 1019.7
64 E VA BEACH    0350   62 56  220/ 12/ 14 1019.1    3/ 9   2/ 9
DUCK             0300   71 61  210/ 13/ 16 1019.2
2 E DUCK         0311      63                N/A     2/10
OREGON INLET     0300   69 69  220/ 13/ 15 1020.3
13E OREGON INLT  0400      62                N/A     3/ 9   2/ 9
HATTERAS CG      0300   68 68  230/  8/ 12 1020.8
DIAMOND BUOY     0350   72 79  240/ 14/ 16 1021.2    4/ 9   2/ 9
CAPE LOOKOUT     0400   70     250/  7/  9 1021.7
BEAUFORT LAB     0300   70 68  230/  5/  8 1020.6
30 SE NEW RVR IN 0325      73                N/A     3/ 4
27 SE WRIGHTSVLE 0308   74 73  250/ 10/ 14 1021.3
5 SE WRIGHTSVLE  NOT AVBL
225 S CAPE HAT   0350   73 78  360/  2/  6 1022.9    5/10   5/10
41 SE CHARLESTON 0350   76 76  190/  8/  8 1022.2    2/ 9   2/ 9

$$




USA.gov is the U.S. government's official web portal to all federal, state and local government web resources and services.